Flag for France Weather past 2 weeks in Nancy, France

Now
54 °F

Clear.


Feels Like: 54 °F
Forecast: 58 / 93 °F
Wind: No wind

Location: Nancy / Ochey

Current Time: Aug 2, 2015 at 6:46:55 AM

Latest Report: Aug 2, 2015 at 6:00 AM


Visibility: 10 mi

Pressure: 30.09 "Hg

Humidity: 77%

Dew point: 46 °F

Location of NancyLocation

Historic Weather in Nancy — Graph

°F

Nancy temperature yesterday

Maximum temperature yesterday: 81 °F (at 5:00 PM)
Minimum temperature yesterday: 54 °F (at 6:00 AM)
Average temperature yesterday: 67 °F

Past Weeks' High & Low Weather Summary

 TemperatureHumidityPressure
High93 °F (Jul 21, 6:30 PM)100% (Jul 29, 7:00 AM)30.12 "Hg (Jul 29, 7:00 AM)
Low43 °F (Jul 31, 6:00 AM)21% (Aug 1, 6:30 PM)29.71 "Hg (Jul 24, 6:00 PM)
Average67 °F60%29.96 "Hg
* Reported Jul 18 5:00 AM — Aug 2 5:00 AM, Nancy, Weather by CustomWeather, © 2015

Note: Actual official high and low records may vary slightly from our data, if they occured in-between our weather recording intervals... More about our weather records

Advertising

Nancy weather history for previous 24 hours

 ConditionsComfort  
Time TempWeatherWind HumidityBarometerVisibility
5:00 AM
Sun, Aug 2
54 °FClear.No wind77%30.09 "Hg10 mi
4:30 AM55 °FClear.1 mph72%30.09 "Hg10 mi
4:00 AM57 °FClear.2 mph67%30.09 "Hg10 mi
3:30 AM57 °FClear.No wind67%30.07 "Hg10 mi
3:00 AM57 °FClear.No wind67%30.09 "Hg10 mi
2:30 AM59 °FClear.2 mph63%30.09 "Hg10 mi
2:00 AM59 °FClear.3 mph63%30.07 "Hg10 mi
1:30 AM61 °FClear.3 mph55%30.07 "Hg10 mi
1:00 AM63 °FClear.2 mph52%30.07 "Hg10 mi
12:00 AM64 °FClear.2 mph46%30.07 "Hg10 mi
11:30 PM
Sat, Aug 1
66 °FClear.3 mph46%30.07 "Hg10 mi
11:00 PM64 °FClear.2 mph52%30.07 "Hg10 mi
10:30 PM66 °FClear.No wind40%30.07 "Hg10 mi
10:00 PM68 °FSunny.2 mph40%30.04 "Hg10 mi
9:30 PM68 °FSunny.5 mph53%30.04 "Hg10 mi
9:00 PM70 °FPassing clouds.5 mph35%30.01 "HgN/A
8:30 PM73 °FSunny.5 mph31%29.98 "Hg10 mi
8:00 PM77 °FSunny.7 mph24%29.98 "Hg10 mi
7:30 PM79 °FPassing clouds.8 mph23%29.98 "HgN/A
7:00 PM81 °FPassing clouds.8 mph23%29.98 "HgN/A
6:30 PM81 °FPassing clouds.7 mph21%29.95 "HgN/A
6:00 PM81 °FSunny.5 mph23%29.95 "Hg10 mi
5:30 PM81 °FPassing clouds.5 mph24%29.95 "HgN/A
5:00 PM81 °FSunny.7 mph26%29.95 "Hg10 mi
4:30 PM79 °FSunny.5 mph26%29.95 "Hg10 mi
4:00 PM79 °FPassing clouds.5 mph24%29.98 "HgN/A
3:30 PM79 °FSunny.7 mph24%29.95 "Hg10 mi
3:00 PM79 °FPassing clouds.6 mph26%29.98 "HgN/A
2:30 PM77 °FSunny.5 mph28%29.98 "Hg10 mi
2:00 PM77 °FSunny.5 mph30%29.98 "Hg10 mi
1:30 PM77 °FSunny.2 mph30%29.98 "Hg10 mi
1:00 PM73 °FSunny.5 mph36%29.98 "Hg10 mi
12:30 PM72 °FPassing clouds.5 mph38%29.98 "HgN/A
12:00 PM72 °FPassing clouds.6 mph38%29.98 "HgN/A
11:30 AM70 °FSunny.5 mph43%29.98 "Hg10 mi
11:00 AM68 °FPassing clouds.5 mph46%29.98 "HgN/A
10:30 AM66 °FPassing clouds.3 mph49%29.98 "HgN/A
10:00 AM64 °FSunny.2 mph52%29.98 "Hg10 mi
9:30 AM63 °FSunny.2 mph56%29.98 "Hg10 mi
9:00 AM63 °FSunny.No wind56%29.95 "Hg10 mi
8:30 AM61 °FSunny.No wind59%29.95 "Hg10 mi
8:00 AM57 °FSunny.1 mph67%29.95 "Hg10 mi
7:30 AM55 °FSunny.1 mph72%29.95 "Hg10 mi
7:00 AM54 °FClear.No wind77%29.95 "Hg10 mi
6:30 AM54 °FClear.No wind72%29.92 "Hg10 mi
6:00 AM54 °FClear.1 mph72%29.92 "Hg10 mi
Weather by CustomWeather, © 2015

See weather overviewHow to use our weather pages